Date String (YYYY-MM-DD hh:mm:ss) UTC,Instrument flags,Ambient pressure (hPa),Sample flow (lpm),Bypass flow (lpm),Sample temperature (°C),Ambient temperature (°C),ASC tube jacket temperature (°C),LED temperature (°C),Box temperature (°C),Sample RH (%),Span deviation,Mass concentration (μg/m³),Mass concentration (μg/m³),Mass concentration (μg/m³)
DateTimeUTC,F1_M11,P_M11,Q1_M11,Q2_M11,T1_M11,T2_M11,T3_M11,T4_M11,T5_M11,U1_M11,ZSPAN_M11,X0_M11,X2_M11,X1_M11
2022-10-17 15:00:00,,0833.9,4.99,0.00,24.3,23.2,00.0,33.0,26.3,15.0,0000.0,0011.14,0004.98,0004.54
2022-10-17 15:01:00,,0833.9,5.00,0.00,24.3,23.2,00.0,33.1,26.3,14.8,0000.0,0010.96,0004.92,0004.53
2022-10-17 15:02:00,,0833.9,5.01,0.00,24.3,23.2,00.0,33.1,26.3,14.4,0000.0,0010.72,0004.90,0004.52
2022-10-17 15:03:00,,0833.9,5.01,0.00,24.3,23.2,00.0,33.1,26.3,14.4,0000.0,0010.72,0004.91,0004.54
2022-10-17 15:04:00,,0833.9,4.99,0.00,24.4,23.2,00.0,33.1,26.3,14.6,0000.0,0010.89,0004.93,0004.54
2022-10-17 15:05:00,,0833.9,5.01,0.00,24.4,23.2,00.0,33.1,26.3,14.8,0000.0,0010.95,0004.90,0004.51
2022-10-17 15:06:00,,0833.9,5.01,0.00,24.4,23.3,00.0,33.1,26.3,15.1,0000.0,0010.96,0004.90,0004.51
2022-10-17 15:07:00,,0833.9,5.00,0.00,24.4,23.3,00.0,33.1,26.3,15.4,0000.0,0011.01,0004.91,0004.51
2022-10-17 15:08:00,,0833.9,5.00,0.00,24.4,23.3,00.0,33.2,26.4,15.0,0000.0,0010.96,0004.90,0004.51
2022-10-17 15:09:00,,0833.9,5.01,0.00,24.4,23.3,00.0,33.2,26.4,15.2,0000.0,0010.48,0004.93,0004.51
2022-10-17 15:10:00,,0834.0,4.99,0.00,24.4,23.3,00.0,33.2,26.4,15.0,0000.0,0009.45,0004.96,0004.52
2022-10-17 15:11:00,,0833.9,5.00,0.00,24.5,23.4,00.0,33.2,26.4,14.1,0000.0,0008.29,0004.96,0004.52
2022-10-17 15:12:00,,0834.0,5.00,0.00,24.5,23.4,00.0,33.2,26.4,14.0,0000.0,0008.37,0005.00,0004.53
2022-10-17 15:13:00,,0833.9,4.99,0.00,24.5,23.4,00.0,33.2,26.5,14.4,0000.0,0008.43,0005.03,0004.54
2022-10-17 15:14:00,,0833.9,5.01,0.00,24.5,23.4,00.0,33.2,26.5,14.9,0000.0,0008.45,0005.04,0004.54
2022-10-17 15:15:00,,0833.9,4.99,0.00,24.5,23.4,00.0,33.3,26.5,14.8,-000.2,0008.44,0005.05,0004.56
2022-10-17 15:16:00,,0833.9,5.01,0.00,24.5,23.4,00.0,33.3,26.5,14.4,-000.0,0008.30,0005.08,0004.58
2022-10-17 15:17:00,,0833.9,5.01,0.00,24.6,23.4,00.0,33.3,26.5,14.7,0000.0,0009.12,0005.11,0004.59
2022-10-17 15:18:00,,0834.0,4.98,0.00,24.6,23.4,00.0,33.3,26.5,14.9,0000.0,0009.47,0005.12,0004.60
2022-10-17 15:19:00,,0834.0,5.01,0.00,24.6,23.5,00.0,33.3,26.5,15.0,0000.0,0009.45,0005.12,0004.61
2022-10-17 15:20:00,,0834.0,5.01,0.00,24.6,23.5,00.0,33.3,26.5,15.1,0000.0,0009.37,0005.11,0004.62
2022-10-17 15:21:00,,0834.0,4.99,0.00,24.6,23.5,00.0,33.3,26.6,15.4,0000.0,0009.26,0005.09,0004.63
2022-10-17 15:22:00,,0834.0,5.02,0.00,24.6,23.5,00.0,33.3,26.6,15.3,0000.0,0009.22,0005.08,0004.63
2022-10-17 15:23:00,,0834.0,4.98,0.00,24.6,23.5,00.0,33.4,26.6,15.2,0000.0,0009.35,0005.10,0004.64
2022-10-17 15:24:00,,0834.0,5.01,0.00,24.7,23.5,00.0,33.4,26.6,15.1,0000.0,0009.39,0005.10,0004.65
2022-10-17 15:25:00,,0834.0,5.00,0.00,24.7,23.6,00.0,33.4,26.6,14.9,0000.0,0009.67,0005.11,0004.65
2022-10-17 15:26:00,,0834.0,5.00,0.00,24.7,23.6,00.0,33.4,26.6,15.0,0000.0,0009.58,0005.08,0004.64
2022-10-17 15:27:00,,0834.0,5.01,0.00,24.7,23.6,00.0,33.4,26.7,14.9,0000.0,0009.49,0005.06,0004.64
2022-10-17 15:28:00,,0834.0,4.98,0.00,24.7,23.6,00.0,33.4,26.7,14.9,0000.0,0009.22,0005.04,0004.64
2022-10-17 15:29:00,,0834.0,5.00,0.00,24.7,23.6,00.0,33.5,26.7,14.9,0000.0,0008.92,0005.00,0004.65
2022-10-17 15:30:00,,0834.0,5.00,0.00,24.7,23.6,00.0,33.5,26.7,14.5,0000.0,0009.22,0005.00,0004.64
2022-10-17 15:31:00,,0834.1,5.01,0.00,24.8,23.7,00.0,33.5,26.7,14.1,0000.0,0009.07,0004.96,0004.63
2022-10-17 15:32:00,,0834.0,4.99,0.00,24.8,23.7,00.0,33.5,26.7,14.2,0000.0,0009.08,0004.97,0004.61
2022-10-17 15:33:00,,0834.0,5.00,0.00,24.8,23.7,00.0,33.5,26.7,14.3,0000.0,0009.26,0005.01,0004.61
2022-10-17 15:34:00,,0834.0,5.01,0.00,24.8,23.7,00.0,33.5,26.7,14.1,0000.0,0009.38,0005.05,0004.61
2022-10-17 15:35:00,,0834.0,4.99,0.00,24.8,23.7,00.0,33.5,26.7,14.3,0000.0,0009.61,0005.05,0004.60
2022-10-17 15:36:00,,0834.0,5.01,0.00,24.8,23.7,00.0,33.6,26.8,14.4,0000.0,0009.36,0005.02,0004.58
2022-10-17 15:37:00,,0834.0,4.99,0.00,24.8,23.7,00.0,33.6,26.8,14.2,0000.0,0009.40,0005.04,0004.58
2022-10-17 15:38:00,,0834.0,5.00,0.00,24.9,23.8,00.0,33.6,26.8,14.5,0000.0,0009.63,0005.07,0004.57
2022-10-17 15:39:00,,0834.0,5.01,0.00,24.9,23.8,00.0,33.6,26.8,14.7,0000.0,0009.91,0005.09,0004.57
2022-10-17 15:40:00,,0834.0,4.98,0.00,24.9,23.8,00.0,33.6,26.8,14.5,0000.0,0009.45,0005.12,0004.56
2022-10-17 15:41:00,,0834.0,5.00,0.00,24.9,23.8,00.0,33.6,26.8,14.0,0000.0,0009.52,0005.14,0004.55
2022-10-17 15:42:00,,0834.0,5.00,0.00,24.9,23.8,00.0,33.6,26.8,13.6,0000.0,0009.65,0005.17,0004.55
2022-10-17 15:43:00,,0834.0,5.00,0.00,24.9,23.8,00.0,33.6,26.9,13.9,0000.0,0009.76,0005.19,0004.55
2022-10-17 15:44:00,,0834.0,5.01,0.00,24.9,23.9,00.0,33.7,26.9,14.3,0000.0,0009.71,0005.18,0004.56
2022-10-17 15:45:00,,0834.0,4.99,0.00,25.0,23.9,00.0,33.7,26.9,14.4,0000.0,0009.59,0005.14,0004.56
2022-10-17 15:46:00,,0834.0,5.01,0.00,25.0,23.9,00.0,33.7,26.9,14.6,0000.0,0010.27,0005.14,0004.57
2022-10-17 15:47:00,,0834.0,4.98,0.00,25.0,23.9,00.0,33.7,26.9,14.7,0000.0,0010.55,0005.16,0004.59
2022-10-17 15:48:00,,0834.0,5.01,0.00,25.0,23.9,00.0,33.7,27.0,14.0,0000.0,0010.44,0005.14,0004.60
2022-10-17 15:49:00,,0834.0,5.01,0.00,25.0,24.0,00.0,33.7,27.0,13.5,0000.0,0010.36,0005.09,0004.58
2022-10-17 15:50:00,,0834.0,4.99,0.00,25.1,24.0,00.0,33.8,27.0,13.6,0000.0,0009.95,0005.06,0004.56
2022-10-17 15:51:00,,0833.9,5.02,0.00,25.1,24.0,00.0,33.8,27.0,13.9,0000.0,0009.85,0005.05,0004.54
2022-10-17 15:52:00,,0833.9,5.02,0.00,25.1,24.0,00.0,33.8,27.0,13.7,0000.0,0009.84,0005.05,0004.54
2022-10-17 15:53:00,,0834.0,5.01,0.00,25.1,24.0,00.0,33.8,27.0,13.4,0000.0,0009.83,0005.04,0004.53
2022-10-17 15:54:00,,0834.0,5.00,0.00,25.1,24.0,00.0,33.8,27.1,12.9,0000.0,0010.27,0005.00,0004.51
2022-10-17 15:55:00,,0834.0,4.98,0.00,25.1,24.0,00.0,33.8,27.1,12.6,0000.0,0010.28,0004.98,0004.50
2022-10-17 15:56:00,,0833.9,5.02,0.00,25.1,24.0,00.0,33.9,27.1,12.7,0000.0,0010.41,0004.98,0004.47
2022-10-17 15:57:00,,0833.9,4.99,0.00,25.2,24.1,00.0,33.9,27.1,12.6,0000.0,0010.41,0004.96,0004.45
2022-10-17 15:58:00,,0833.9,5.01,0.00,25.2,24.1,00.0,33.9,27.1,13.0,0000.0,0009.49,0004.93,0004.41
2022-10-17 15:59:00,,0833.9,5.01,0.00,25.2,24.1,00.0,33.9,27.1,13.6,0000.0,0009.32,0004.94,0004.39
